Weather History for Charlotte, MI

Change the Weather History Date:

Tuesday, December 4, 2012

  Actual Average (KLAN) Record (KLAN)
Temperature  
Mean Temperature 52 °F 32 °F  
Max Temperature 63 °F 38 °F 64 °F (1941)
Min Temperature 38 °F 26 °F -13 °F (1886)
Degree Days  
Heating Degree Days 14 33  
Month to date heating degree days 130  
Since 1 July heating degree days 1544  
Cooling Degree Days 0 0  
Month to date cooling degree days 0  
Year to date cooling degree days 625  
Growing Degree Days 2 (Base 50)    
Moisture  
Dew Point 40 °F    
Average Humidity 70    
Maximum Humidity 94    
Minimum Humidity 47    
Precipitation  
Precipitation 0.00 in 0.07 in 1.15 in (1887)
Month to date precipitation 0.28  
Year to date precipitation 30.18  
Snow  
Snow 0.00 in 0.30 in 5.40 in (1964)
Month to date snowfall 1.3  
Since 1 July snowfall 5.1  
Snow Depth -    
Sea Level Pressure  
Sea Level Pressure 30.00 in    
Wind  
Wind Speed 10 mph (West)    
Max Wind Speed 18 mph    
Max Gust Speed 29 mph    
Visibility 10 miles    
Events Rain    
T = Trace of Precipitation, MM = Missing Value Source: NWS Daily Summary

Daily Weather History Graph

Daily Weather History Graph

Search for Another Location

Airport:

Trip Planner

Search our weather history database for the weather conditions in past years. The results will help you decide how hot, cold, wet, or windy it might be!

Date:

Astronomy

Dec. 04, 2012 Rise Set
Actual Time 7:53 AM EST 5:06 PM EST
Civil Twilight 7:21 AM EST 5:37 PM EST
Nautical Twilight 6:46 AM EST 6:13 PM EST
Astronomical Twilight 6:12 AM EST 6:47 PM EST
Moon 10:57 PM EST (12/4) 11:42 AM EST (12/4)
Length of Visible Light 10h 16m
Length of Day
9h 13m
Waning Gibbous, 69% of the Moon is Illuminated
Dec 4
Waning Gibbous
Dec 6
Last Quarter
Dec 13
New
Dec 20
First Quarter
Dec 28
Full

Hourly Weather History & Observations

Time (EST) Temp. Windchill Dew Point Humidity Pressure Visibility Wind Dir Wind Speed Gust Speed Precip Events Conditions
12:19 AM 64.4 °F - 57.2 °F 77% 29.86 in 10.0 mi SW 18.4 mph 28.8 mph N/A   Overcast
12:36 AM 64.4 °F - 57.2 °F 77% 29.86 in 10.0 mi SW 15.0 mph 26.5 mph N/A   Overcast
12:56 AM 62.6 °F - 57.2 °F 82% 29.86 in 10.0 mi SW 16.1 mph 26.5 mph N/A   Overcast
1:57 AM 62.6 °F - 57.2 °F 82% 29.86 in 10.0 mi SW 16.1 mph 20.7 mph N/A   Overcast
2:37 AM 62.6 °F - 57.2 °F 82% 29.87 in 10.0 mi SW 11.5 mph 17.3 mph N/A   Overcast
3:36 AM 60.8 °F - 59.0 °F 94% 29.87 in 7.0 mi SSW 9.2 mph - N/A   Drizzle
4:01 AM 60.8 °F - 59.0 °F 94% 29.87 in 10.0 mi SW 6.9 mph - N/A   Overcast
4:16 AM 60.8 °F - 59.0 °F 94% 29.87 in 10.0 mi SW 6.9 mph - N/A   Overcast
4:56 AM 57.2 °F - 55.4 °F 94% 29.89 in 7.0 mi WNW 11.5 mph - N/A   Overcast
5:16 AM 55.4 °F - 53.6 °F 94% 29.89 in 7.0 mi WNW 9.2 mph - N/A   Overcast
5:36 AM 55.4 °F - 51.8 °F 88% 29.90 in 7.0 mi WNW 11.5 mph - N/A   Overcast
5:57 AM 53.6 °F - 50.0 °F 88% 29.91 in 7.0 mi NW 8.1 mph 17.3 mph N/A Rain Rain
6:57 AM 50.0 °F - 46.4 °F 87% 29.96 in 10.0 mi WNW 6.9 mph - N/A Rain Rain
7:36 AM 50.0 °F - 46.4 °F 87% 29.98 in 7.0 mi WNW 6.9 mph - N/A Rain Rain
9:36 AM 48.2 °F - 46.4 °F 93% 29.99 in 10.0 mi West 3.5 mph - N/A   Overcast
9:57 AM 48.2 °F - 44.6 °F 87% 30.00 in 10.0 mi WSW 4.6 mph - N/A   Overcast
10:16 AM 48.2 °F - 44.6 °F 87% 30.00 in 10.0 mi WSW 5.8 mph - N/A   Overcast
10:57 AM 48.2 °F - 42.8 °F 82% 30.00 in 10.0 mi West 6.9 mph - N/A   Mostly Cloudy
11:17 AM 50.0 °F - 42.8 °F 76% 30.00 in 10.0 mi West 5.8 mph - N/A   Overcast
11:36 AM 50.0 °F - 41.0 °F 71% 30.00 in 10.0 mi West 6.9 mph - N/A   Overcast
11:51 AM 49.5 °F - 40.3 °F 71% 29.99 in 10.0 mi WSW 5.8 mph - N/A   Mostly Cloudy
11:56 AM 49.3 °F - 40.3 °F 71% 29.99 in 10.0 mi WSW 6.9 mph - N/A   Mostly Cloudy
12:15 PM 49.6 °F - 40.1 °F 70% 29.98 in 10.0 mi WSW 6.9 mph - N/A   Clear
12:36 PM 50.0 °F - 39.7 °F 68% 29.98 in 10.0 mi WSW 10.4 mph - N/A   Clear
1:16 PM 50.4 °F - 39.6 °F 66% 29.98 in 10.0 mi West 6.9 mph - N/A   Clear
1:35 PM 50.9 °F - 38.7 °F 63% 29.98 in 10.0 mi West 6.9 mph - N/A   Clear
1:56 PM 53.2 °F - 38.5 °F 57% 29.98 in 10.0 mi West 10.4 mph - N/A   Clear
2:15 PM 53.8 °F - 37.6 °F 54% 29.98 in 10.0 mi West 11.5 mph - N/A   Clear
2:36 PM 52.0 °F - 35.6 °F 54% 29.98 in 10.0 mi West 10.4 mph - N/A   Clear
2:55 PM 54.0 °F - 36.5 °F 52% 29.98 in 10.0 mi WSW 8.1 mph - N/A   Clear
3:15 PM 52.5 °F - 35.1 °F 51% 29.98 in 10.0 mi WSW 10.4 mph 16.1 mph N/A   Clear
3:35 PM 52.0 °F - 34.5 °F 51% 29.99 in 10.0 mi West 9.2 mph - N/A   Clear
3:56 PM 52.0 °F - 33.6 °F 50% 30.00 in 10.0 mi WSW 8.1 mph - N/A   Clear
4:15 PM 50.9 °F - 31.1 °F 47% 30.00 in 10.0 mi WSW 10.4 mph 17.3 mph N/A   Clear
4:36 PM 49.6 °F - 31.3 °F 49% 30.01 in 10.0 mi West 9.2 mph - N/A   Clear
4:55 PM 49.1 °F - 31.5 °F 51% 30.01 in 10.0 mi West 9.2 mph - N/A   Clear
5:15 PM 47.8 °F - 31.6 °F 53% 30.02 in 10.0 mi West 9.2 mph - N/A   Clear
5:35 PM 46.8 °F - 31.8 °F 56% 30.03 in 10.0 mi West 6.9 mph - N/A   Clear
5:55 PM 46.2 °F 42.2 °F 32.0 °F 58% 30.04 in 10.0 mi West 8.1 mph - N/A   Clear
6:15 PM 45.1 °F 42.0 °F 32.0 °F 60% 30.05 in 10.0 mi WSW 5.8 mph - N/A   Clear
6:35 PM 44.6 °F 41.4 °F 32.0 °F 61% 30.05 in 10.0 mi WSW 5.8 mph - N/A   Clear
6:55 PM 44.2 °F 41.0 °F 32.2 °F 63% 30.05 in 10.0 mi WSW 5.8 mph - N/A   Clear
7:15 PM 43.7 °F 39.7 °F 32.4 °F 64% 30.05 in 10.0 mi WSW 6.9 mph - N/A   Clear
7:35 PM 43.7 °F 39.7 °F 32.7 °F 65% 30.05 in 10.0 mi WSW 6.9 mph - N/A   Clear
7:55 PM 43.9 °F 39.3 °F 33.3 °F 66% 30.06 in 10.0 mi WSW 8.1 mph - N/A   Clear
8:15 PM 43.3 °F 39.2 °F 33.8 °F 69% 30.06 in 10.0 mi WSW 6.9 mph - N/A   Clear
8:35 PM 43.2 °F 39.7 °F 33.8 °F 70% 30.07 in 10.0 mi West 5.8 mph - N/A   Clear
8:55 PM 43.7 °F 38.1 °F 34.2 °F 69% 30.06 in 10.0 mi West 10.4 mph - N/A   Clear
9:15 PM 44.4 °F 40.0 °F 34.0 °F 67% 30.07 in 10.0 mi WNW 8.1 mph - N/A   Clear
9:35 PM 43.7 °F 38.6 °F 33.8 °F 68% 30.08 in 10.0 mi WNW 9.2 mph - N/A   Clear
9:55 PM 42.4 °F 37.0 °F 33.8 °F 71% 30.09 in 10.0 mi WNW 9.2 mph 16.1 mph N/A   Clear
10:15 PM 41.9 °F 38.2 °F 32.9 °F 70% 30.09 in 10.0 mi WNW 5.8 mph - N/A   Clear
10:35 PM 40.8 °F 36.2 °F 32.0 °F 71% 30.10 in 10.0 mi NW 6.9 mph - N/A   Clear
10:56 PM 40.5 °F 33.6 °F 30.2 °F 67% 30.10 in 10.0 mi NW 11.5 mph 16.1 mph N/A   Clear
11:15 PM 39.9 °F 35.1 °F 28.9 °F 65% 30.11 in 10.0 mi WNW 6.9 mph - N/A   Clear
11:35 PM 39.2 °F 33.6 °F 28.8 °F 66% 30.13 in 10.0 mi WNW 8.1 mph - N/A   Clear
11:55 PM 38.5 °F 33.4 °F 28.8 °F 68% 30.14 in 10.0 mi WNW 6.9 mph - N/A   Clear